User: anonymous   Login
Location: Caltech
(34.1382°N, 118.1253°W)
Time: 15:21:34
(UTC-07:00)
Language:

Cosmos 2251 Rocket - Orbit

View from above orbital plane
View from above orbital plane
View from above satellite
View from above satellite

Ground track
Ground track

The orbit data is extracted from the following two-line orbital elements,

1 22676U 93036B   17290.49704797  .00000017  00000-0  15478-4 0  9997
2 22676  74.0418 318.1792 0019879 312.8174  47.1306 14.33934970272870
Epoch (UTC): 17 October 2017 11:55:44
Eccentricity: 0.0019879
inclination: 74.0418°
perigee height: 764 km
apogee height: 793 km
right ascension of ascending node: 318.1792°
argument of perigee: 312.8174°
revolutions per day: 14.33934970
mean anomaly at epoch: 47.1306°
orbit number at epoch: 27287

The dashed part of the orbit path shows where the satellite is in the earth's shadow,  

DLR